Ridgedale, MO

7:55 PM CST on February 20, 2017 (GMT -0600)
Branson

Weather History for KBBG - October, 2011

Change the Weather History Date:

Thursday, October 13, 2011

  Actual Average (KHRO) Record (KHRO)
Temperature  
Mean Temperature 63 °F -  
Max Temperature 71 °F 71 °F 90 °F (1899)
Min Temperature 55 °F 49 °F 23 °F (1907)
Degree Days  
Heating Degree Days 2    
Growing Degree Days 13 (Base 50)    
Moisture  
Dew Point 49 °F    
Average Humidity 71    
Maximum Humidity 100    
Minimum Humidity 31    
Precipitation  
Precipitation 0.00 in - - ()
Sea Level Pressure  
Sea Level Pressure 29.82 in    
Wind  
Wind Speed 5 mph (WNW)    
Max Wind Speed 17 mph    
Max Gust Speed 28 mph    
Visibility 10 miles    
Events      
Averages and records for this station are not official NWS values.
T = Trace of Precipitation, MM = Missing Value Source: NWS Daily Summary

Daily Weather History Graph

Daily Weather History Graph

Search for Another Location

Airport or City:

Trip Planner

Search our weather history database for the weather conditions in past years. The results will help you decide how hot, cold, wet, or windy it might be!

Date:

Astronomy

Oct. 13, 2011 Rise Set
Actual Time 7:18 AM CDT 6:39 PM CDT
Civil Twilight 6:52 AM CDT 7:05 PM CDT
Nautical Twilight 6:22 AM CDT 7:35 PM CDT
Astronomical Twilight 5:52 AM CDT 8:05 PM CDT
Moon 7:20 PM CDT (10/13) 8:46 AM CDT (10/13)
Length of Visible Light 12h 13m
Length of Day
11h 21m
Full, 98% of the Moon is Illuminated
Oct 13
Full
Oct 19
Last Quarter
Oct 26
New
Nov 2
First Quarter
Nov 10
Full

Hourly Weather History & Observations

Time (CDT) Temp. Dew Point Humidity Pressure Visibility Wind Dir Wind Speed Gust Speed Precip Events Conditions
12:15 AM 57.2 °F 53.6 °F 88% 29.74 in 10.0 mi Calm Calm - N/A   Scattered Clouds
12:35 AM 57.2 °F 55.4 °F 94% 29.74 in 10.0 mi WNW 9.2 mph - N/A   Scattered Clouds
12:55 AM 57.2 °F 55.4 °F 94% 29.75 in 10.0 mi Calm Calm - N/A   Mostly Cloudy
1:15 AM 57.2 °F 55.4 °F 94% 29.75 in 10.0 mi Calm Calm - N/A   Overcast
1:35 AM 57.2 °F 57.2 °F 100% 29.75 in 10.0 mi Calm Calm - N/A   Overcast
1:55 AM 57.2 °F 57.2 °F 100% 29.76 in 10.0 mi Calm Calm - N/A   Overcast
2:15 AM 57.2 °F 55.4 °F 94% 29.77 in 10.0 mi Calm Calm - N/A   Overcast
2:35 AM 59.0 °F 55.4 °F 88% 29.77 in 10.0 mi NW 9.2 mph - N/A   Overcast
2:55 AM 59.0 °F 55.4 °F 88% 29.76 in 10.0 mi NW 11.5 mph 16.1 mph N/A   Overcast
3:15 AM 59.0 °F 55.4 °F 88% 29.76 in 10.0 mi NW 4.6 mph - N/A   Mostly Cloudy
3:35 AM 57.2 °F 55.4 °F 94% 29.76 in 10.0 mi WNW 5.8 mph - N/A   Scattered Clouds
3:55 AM 57.2 °F 55.4 °F 94% 29.77 in 10.0 mi Calm Calm - N/A   Clear
4:15 AM 57.2 °F 55.4 °F 94% 29.78 in 10.0 mi NW 9.2 mph - N/A   Clear
4:35 AM 57.2 °F 53.6 °F 88% 29.78 in 10.0 mi NW 6.9 mph - N/A   Clear
4:55 AM 57.2 °F 53.6 °F 88% 29.78 in 10.0 mi WNW 3.5 mph - N/A   Clear
5:15 AM 57.2 °F 53.6 °F 88% 29.79 in 10.0 mi WNW 3.5 mph - N/A   Clear
5:35 AM 57.2 °F 53.6 °F 88% 29.80 in 10.0 mi WNW 5.8 mph - N/A   Partly Cloudy
5:55 AM 57.2 °F 51.8 °F 82% 29.80 in 10.0 mi NW 8.1 mph - N/A   Clear
6:15 AM 57.2 °F 51.8 °F 82% 29.80 in 10.0 mi WNW 6.9 mph 16.1 mph N/A   Clear
6:45 AM 57.2 °F 51.8 °F 82% 29.81 in 10.0 mi NW 11.5 mph - N/A   Clear
7:45 AM 55.4 °F 50.0 °F 82% 29.83 in 10.0 mi WNW 11.5 mph 27.6 mph N/A   Clear
8:45 AM 57.2 °F 50.0 °F 77% 29.84 in 10.0 mi WNW 5.8 mph - N/A   Clear
9:45 AM 59.0 °F 50.0 °F 72% 29.86 in 10.0 mi NNW 11.5 mph - N/A   Clear
10:45 AM 62.6 °F 50.0 °F 63% 29.88 in 10.0 mi WNW 11.5 mph - N/A   Clear
11:45 AM 64.4 °F 48.2 °F 56% 29.87 in 10.0 mi NW 9.2 mph - N/A   Clear
12:45 PM 66.2 °F 64.4 °F 94% 29.86 in 10.0 mi NW 17.3 mph 27.6 mph N/A   Partly Cloudy
2:55 PM 69.8 °F 44.6 °F 40% 29.83 in 10.0 mi WNW 12.7 mph 23.0 mph N/A   Clear
3:45 PM 71.6 °F 39.2 °F 31% 29.86 in 10.0 mi NW 16.1 mph 27.6 mph N/A   Clear
4:45 PM 69.8 °F 39.2 °F 33% 29.82 in 10.0 mi NW 15.0 mph 20.7 mph N/A   Clear
5:54 PM 68.0 °F 41.0 °F 37% 29.82 in 10.0 mi NW 9.2 mph - N/A   Partly Cloudy
6:49 PM 64.4 °F 41.0 °F 42% 29.83 in 10.0 mi West 6.9 mph - N/A   Partly Cloudy
7:58 PM 62.6 °F 41.0 °F 45% 29.85 in 10.0 mi West 5.8 mph - N/A   Clear
9:15 PM 62.6 °F 41.0 °F 45% 29.87 in 10.0 mi Calm Calm - N/A   Clear
9:35 PM 62.6 °F 41.0 °F 45% 29.88 in 10.0 mi Calm Calm - N/A   Clear
9:55 PM 60.8 °F 41.0 °F 48% 29.88 in 10.0 mi Calm Calm - N/A   Clear
10:15 PM 60.8 °F 41.0 °F 48% 29.89 in 10.0 mi Calm Calm - N/A   Clear
10:35 PM 59.0 °F 41.0 °F 51% 29.89 in 10.0 mi Calm Calm - N/A   Clear
10:55 PM 59.0 °F 41.0 °F 51% 29.89 in 10.0 mi Calm Calm - N/A   Clear
11:15 PM 59.0 °F 41.0 °F 51% 29.90 in 10.0 mi Calm Calm - N/A   Clear
11:35 PM 59.0 °F 39.2 °F 48% 29.90 in 10.0 mi Calm Calm - N/A   Clear
11:55 PM 59.0 °F 39.2 °F 48% 29.90 in 10.0 mi Calm Calm - N/A   Clear